User: anonymous   Login
Location: Unspecified
(43.4680°N, 87.1740°E)
Time: 05:17:10
(UTC+00:00)
Language:

CENTAUR R/B - Orbit

View from above orbital plane
View from above orbital plane
View from above satellite
View from above satellite

Ground track
Ground track

The orbit data is extracted from the following two-line orbital elements,

1 26906U 01040B   21169.02377582 0.00000000  00000-0  00000-0 0    04
2 26906  63.4493 181.3029 0473166 339.1420  20.8580 13.44080820    00
Epoch (UTC): 18 June 2021 00:34:14
Eccentricity: 0.0473166
inclination: 63.4493°
perigee height: 740 km
apogee height: 1447 km
right ascension of ascending node: 181.3029°
argument of perigee: 339.1420°
revolutions per day: 13.44080820
mean anomaly at epoch: 20.8580°
orbit number at epoch: 0

The dashed part of the orbit path shows where the satellite is in the earth's shadow,  

DLR